Location: Aalen
(48.8330°N, 10.1000°E)
Time: 10:18:08
(UTC+01:00)

Tiangong - Pass Details

Date: 07 December 2022
Orbit: 383 x 386 km, 41.5° (Epoch: 28 January)

Event Time Altitude Azimuth Distance (km) Brightness Sun altitude
Rises 19:17:15 0° 258° (WSW) 2,259 3.0 -27.6°
Reaches altitude 10° 19:20:14 10° 227° (SW) 1,406 1.3 -28.1°
Enters shadow 19:20:24 11° 224° (SW) 1,377 1.2 -28.1°
